DW2070 Weather Reports


Display with metric or nautical units.
time (UTC)temp
F
wind
direction
speed
MPH
gust
MPH
rain 1hr
in
rain 24hr
in
rain mn
in
humidity
%
barometer
mb
20260906183004 69 25 0.0 3.0 0.09 0.15 0.15 86 1016.5
20260906182003 69 25 1.0 5.0 0.10 0.14 0.14 85 1016.8
20260906181003 69 15 2.0 5.0 0.11 0.13 0.13 84 1016.6
20260906180025 69 282 0.0 4.0 0.10 0.11 0.11 83 1016.7
20260906175025 69 0 1.0 1.0 0.09 0.09 0.09 83 1017.0
20260906174024 69 0 1.0 1.0 0.08 0.08 0.08 82 1016.9
20260906173024 69 0 0.0 0.0 0.06 0.06 0.06 80 1016.7
20260906172004 69 0 0.0 0.0 0.04 0.04 0.04 79 1016.5
20260906171004 70 0 0.0 0.0 0.02 0.02 0.02 76 1016.3
20260906170004 70 278 1.0 2.0 0.01 0.01 0.01 75 1016.2
20260906165004 70 276 2.0 4.0 0.00 0.00 0.00 73 1016.0
20260906164004 70 273 2.0 4.0 0.00 0.00 0.00 74 1015.6
20260906163003 70 234 2.0 4.0 0.00 0.00 0.00 72 1015.7
20260906162004 70 197 1.0 4.0 0.00 0.00 0.00 71 1015.6
20260906161003 70 191 1.0 2.0 0.00 0.00 0.00 69 1015.5
20260906160003 70 178 2.0 5.0 0.00 0.00 0.00 67 1015.3
20260906155004 70 139 3.0 4.0 0.00 0.00 0.00 63 1014.9
20260906154004 70 132 3.0 7.0 0.00 0.00 0.00 63 1014.5
20260906153004 70 137 1.0 7.0 0.00 0.00 0.00 62 1014.2
20260906152003 70 123 2.0 4.0 0.00 0.00 0.00 63 1014.1
20260906151003 70 127 2.0 4.0 0.00 0.00 0.00 61 1013.9
20260906150004 69 115 1.0 4.0 0.00 0.00 0.00 61 1013.8
20260906145003 69 66 2.0 5.0 0.00 0.00 0.00 62 1013.8
20260906144004 68 64 3.0 5.0 0.00 0.00 0.00 62 1013.4
20260906143003 68 67 2.0 6.0 0.00 0.00 0.00 62 1013.5
20260906142004 67 64 2.0 6.0 0.00 0.00 0.00 63 1013.3
20260906141003 67 64 3.0 3.0 0.00 0.00 0.00 64 1013.4
20260906140003 67 69 3.0 6.0 0.00 0.00 0.00 65 1013.0
20260906135003 66 87 1.0 4.0 0.00 0.00 0.00 67 1013.3
20260906134003 66 87 2.0 3.0 0.00 0.00 0.00 68 1013.2
20260906133003 66 86 1.0 3.0 0.00 0.00 0.00 69 1013.2
20260906132003 66 0 0.0 0.0 0.00 0.00 0.00 68 1013.1
20260906131003 66 0 0.0 3.0 0.00 0.00 0.00 68 1013.0
20260906130024 66 0 0.0 1.0 0.00 0.00 0.00 68 1013.1
20260906125003 66 0 0.0 1.0 0.00 0.00 0.00 67 1013.0
20260906124024 66 0 0.0 2.0 0.00 0.00 0.00 67 1012.9
20260906123003 66 0 0.0 0.0 0.00 0.00 0.00 66 1012.7
20260906122003 66 0 0.0 0.0 0.00 0.00 0.00 66 1012.7
20260906121003 66 0 0.0 2.0 0.00 0.00 0.00 65 1012.6
20260906120003 67 85 0.0 1.0 0.00 0.00 0.00 65 1012.4
20260906115003 67 85 1.0 2.0 0.00 0.00 0.00 65 1012.5
20260906114003 67 85 1.0 3.0 0.00 0.00 0.00 65 1012.6
20260906113003 67 85 1.0 3.0 0.00 0.00 0.00 65 1012.7
20260906112003 66 83 1.0 3.0 0.00 0.00 0.00 64 1012.7
20260906111003 66 84 2.0 4.0 0.00 0.00 0.00 65 1012.6
20260906110003 66 88 2.0 5.0 0.00 0.00 0.00 65 1012.6
20260906105003 66 84 1.0 4.0 0.00 0.00 0.00 66 1012.8
20260906104003 66 77 1.0 3.0 0.00 0.00 0.00 66 1012.7
20260906103003 65 76 2.0 4.0 0.00 0.00 0.00 67 1012.7
20260906102003 65 75 3.0 5.0 0.00 0.00 0.00 67 1012.7
20260906101003 65 83 2.0 6.0 0.00 0.00 0.00 68 1012.5
20260906095003 65 99 2.0 5.0 0.00 0.00 0.00 70 1012.5
20260906094003 65 84 2.0 4.0 0.00 0.00 0.00 70 1012.6
20260906093003 65 58 0.0 4.0 0.00 0.00 0.00 71 1012.6
20260906092003 64 58 1.0 3.0 0.00 0.00 0.00 71 1012.8
20260906091003 64 58 1.0 4.0 0.00 0.00 0.00 72 1013.0
20260906085003 65 0 0.0 0.0 0.00 0.00 0.00 75 1013.0
20260906084024 65 0 0.0 0.0 0.00 0.00 0.00 75 1013.0
20260906083003 65 0 0.0 0.0 0.00 0.00 0.00 75 1013.1
20260906082024 65 0 0.0 0.0 0.00 0.00 0.00 76 1013.2
20260906081003 65 0 0.0 0.0 0.00 0.00 0.00 76 1013.2
20260906075004 65 57 1.0 3.0 0.00 0.00 0.00 78 1013.2
20260906074003 65 56 1.0 4.0 0.00 0.00 0.00 79 1013.2
20260906073003 65 51 1.0 4.0 0.00 0.00 0.00 79 1013.2
20260906072004 65 49 1.0 3.0 0.00 0.00 0.00 78 1013.2
20260906071025 65 45 0.0 4.0 0.00 0.00 0.00 78 1013.2
20260906070005 66 0 0.0 0.0 0.00 0.00 0.00 78 1013.3
20260906065005 66 0 1.0 1.0 0.00 0.00 0.00 78 1013.3
20260906064005 66 0 0.0 2.0 0.00 0.00 0.00 77 1013.3
20260906063005 66 311 1.0 2.0 0.00 0.00 0.00 77 1013.4
20260906062004 66 311 1.0 3.0 0.00 0.00 0.00 77 1013.4
20260906061004 67 307 1.0 3.0 0.00 0.00 0.00 77 1013.3
20260906060005 67 0 0.0 3.0 0.00 0.00 0.00 77 1013.5
20260906054004 68 0 1.0 0.0 0.00 0.00 0.00 77 1013.4
20260906053005 68 257 0.0 3.0 0.00 0.00 0.00 76 1013.5
20260906052004 68 0 0.0 1.0 0.00 0.00 0.00 76 1013.6
20260906051004 69 0 0.0 0.0 0.00 0.00 0.00 76 1013.7
20260906050025 69 0 0.0 0.0 0.00 0.00 0.00 76 1013.7
20260906045004 69 0 0.0 0.0 0.00 0.00 0.00 75 1013.8
20260906044004 70 0 0.0 0.0 0.00 0.00 0.00 75 1013.8
20260906043004 70 0 0.0 0.0 0.00 0.00 0.00 75 1013.8
20260906042004 70 0 0.0 0.0 0.00 0.00 0.00 75 1013.8
20260906041004 70 247 1.0 4.0 0.00 0.00 0.00 75 1013.6
20260906040025 71 246 1.0 4.0 0.00 0.00 0.00 75 1013.7
20260906035004 71 246 0.0 3.0 0.00 0.00 0.00 73 1013.6
20260906034025 72 246 1.0 2.0 0.00 0.00 0.00 72 1013.5
20260906033004 72 246 0.0 3.0 0.00 0.00 0.00 71 1013.3
20260906032004 72 246 1.0 3.0 0.00 0.00 0.00 70 1013.2
20260906031025 72 246 1.0 4.0 0.00 0.00 0.00 70 1013.2
20260906030004 73 247 1.0 2.0 0.00 0.00 0.00 68 1013.1
20260906025004 73 248 1.0 4.0 0.00 0.00 0.00 67 1013.1
20260906024004 74 248 1.0 4.0 0.00 0.00 0.00 65 1013.0
20260906023004 74 245 2.0 4.0 0.00 0.00 0.00 64 1013.1
20260906022004 75 246 3.0 5.0 0.00 0.00 0.00 63 1013.1
20260906021004 75 247 3.0 7.0 0.00 0.00 0.00 61 1013.0
20260906020004 76 251 3.0 6.0 0.00 0.00 0.00 62 1013.0
20260906015004 77 258 3.0 9.0 0.00 0.00 0.00 60 1012.9
20260906014004 78 277 3.0 9.0 0.00 0.00 0.00 58 1012.8
20260906013004 79 276 3.0 9.0 0.00 0.00 0.00 55 1012.9
20260906012004 80 282 3.0 8.0 0.00 0.00 0.00 52 1012.9
20260906011004 81 303 4.0 9.0 0.00 0.00 0.00 51 1013.0
20260906010004 82 252 5.0 10.0 0.00 0.00 0.00 46 1013.0
20260906005004 83 257 5.0 10.0 0.00 0.00 0.00 46 1013.0
20260906004004 84 262 5.0 11.0 0.00 0.00 0.00 43 1012.9
20260906003004 84 268 5.0 10.0 0.00 0.00 0.00 43 1012.8
20260906002004 85 257 4.0 11.0 0.00 0.00 0.00 42 1012.8
20260906001004 85 241 4.0 11.0 0.00 0.00 0.00 40 1012.7
20260906000004 86 251 5.0 12.0 0.00 0.00 0.00 40 1012.6
20260905235004 85 244 5.0 10.0 0.00 0.00 0.00 41 1012.7
20260905234025 86 257 5.0 11.0 0.00 0.00 0.00 40 1012.7
20260905233004 86 260 5.0 11.0 0.00 0.00 0.00 40 1012.8
20260905232004 86 246 5.0 13.0 0.00 0.00 0.00 41 1012.8
20260905231004 87 254 5.0 12.0 0.00 0.00 0.00 38 1012.8
20260905230004 87 264 5.0 11.0 0.00 0.00 0.00 38 1012.9
20260905225004 86 255 6.0 11.0 0.00 0.00 0.00 37 1012.9
20260905224004 86 250 5.0 14.0 0.00 0.00 0.00 39 1012.9
20260905223004 86 249 5.0 11.0 0.00 0.00 0.00 42 1012.9
20260905222004 86 265 6.0 13.0 0.00 0.00 0.00 43 1013.0
20260905221004 86 260 5.0 12.0 0.00 0.00 0.00 43 1013.0
20260905220004 86 248 6.0 13.0 0.00 0.00 0.00 44 1013.0
20260905215004 86 263 6.0 14.0 0.00 0.00 0.00 45 1013.1
20260905214004 87 244 5.0 12.0 0.00 0.00 0.00 46 1013.3
20260905213004 86 257 6.0 13.0 0.00 0.00 0.00 48 1013.3
20260905212004 86 250 5.0 16.0 0.00 0.00 0.00 49 1013.4
20260905211004 86 247 6.0 9.0 0.00 0.00 0.00 49 1013.4
20260905210004 86 263 6.0 14.0 0.00 0.00 0.00 50 1013.4
20260905205004 86 258 6.0 12.0 0.00 0.00 0.00 49 1013.6
20260905204004 86 249 6.0 16.0 0.00 0.00 0.00 50 1013.6
20260905203025 86 251 6.0 13.0 0.00 0.00 0.00 49 1013.8
20260905202004 85 251 5.0 12.0 0.00 0.00 0.00 49 1013.9
20260905201004 85 243 5.0 11.0 0.00 0.00 0.00 50 1013.9
20260905200004 86 247 5.0 11.0 0.00 0.00 0.00 50 1014.1
20260905195004 85 260 5.0 11.0 0.00 0.00 0.00 49 1014.2
20260905194004 86 252 5.0 10.0 0.00 0.00 0.00 48 1014.3
20260905193004 86 251 4.0 11.0 0.00 0.00 0.00 47 1014.4
20260905192025 85 234 4.0 9.0 0.00 0.00 0.00 47 1014.4
20260905191025 86 240 3.0 9.0 0.00 0.00 0.00 45 1014.5
20260905190004 86 248 3.0 8.0 0.00 0.00 0.00 41 1014.7
20260905185025 85 224 2.0 7.0 0.00 0.00 0.00 40 1014.6
20260905184004 85 258 2.0 5.0 0.00 0.00 0.00 41 1014.8